Location: Newark
(41.8083°N, 72.2500°W)
Time: 00:38:15
(UTC+00:00)

S-56A Canister/Altair - Visible Passes

Search period start: 28 November 2021 00:00
Search period end: 08 December 2021 00:00
Orbit: 633 x 2500 km, 38.9° (Epoch: 27 November)

Date Brightness Start Highest point End Pass type
(mag) Time Alt. Az. Time Alt. Az. Time Alt. Az.
28 Nov 9.6 08:32:46 20° E 08:32:46 20° E 08:34:05 10° E visible
28 Nov 7.8 10:30:12 22° WSW 10:32:53 45° SSW 10:37:07 10° ESE visible
29 Nov 7.6 09:59:22 41° SW 10:00:27 49° SSW 10:04:44 10° ESE visible
30 Nov 7.7 09:28:32 51° SSE 09:28:32 51° SSE 09:32:22 10° ESE visible
30 Nov 9.0 11:27:45 10° WSW 11:30:57 19° SSW 11:34:07 10° SSE visible
01 Dec 8.9 08:57:43 30° ESE 08:57:43 30° ESE 09:00:03 10° ESE visible
01 Dec 8.8 10:55:09 11° W 10:58:32 22° SSW 11:02:01 10° SSE visible
02 Dec 9.9 08:26:54 16° ESE 08:26:54 16° ESE 08:27:44 10° ESE visible
02 Dec 8.5 10:24:20 21° WSW 10:26:08 26° SSW 10:29:52 10° SSE visible
03 Dec 8.3 09:53:32 31° SSW 09:53:44 31° SSW 09:57:43 10° SE visible
04 Dec 8.7 09:22:46 30° SSE 09:22:46 30° SSE 09:25:32 10° SE visible
05 Dec 9.5 08:52:00 19° SE 08:52:00 19° SE 08:53:22 10° SE visible
06 Dec 11.4 01:53:55 10° SSW 01:54:19 11° SSW 01:54:19 11° SSW visible
06 Dec 9.3 10:18:43 13° SW 10:18:58 13° SW 10:21:10 10° SSW visible
07 Dec 11.2 01:20:57 10° S 01:23:42 15° S 01:23:42 15° S visible
07 Dec 9.4 09:48:00 15° SSW 09:48:00 15° SSW 09:49:40 10° S visible
